Flag for Germany Weather past 2 weeks in Melsungen, Hesse, Germany

Now
93 °F

Passing clouds.


Feels Like: 94 °F
Forecast: 64 / 96 °F
Wind: 2 mph from North

Location: Fritzlar

Current Time: Jul 3, 2015 at 5:47:44 PM

Latest Report: Jul 3, 2015 at 5:00 PM


Visibility: 19 mi

Pressure: 30.15 "Hg

Humidity: 37%

Dew point: 63 °F

Location of MelsungenLocation

Historic Weather in Melsungen — Graph

°F

Melsungen temperature yesterday

Maximum temperature yesterday: 93 °F (at 5:00 PM)
Minimum temperature yesterday: 58 °F (at 5:00 AM)
Average temperature yesterday: 78 °F

Past Weeks' High & Low Weather Summary

 TemperatureHumidityPressure
High93 °F (Jul 3, 5:00 PM)97% (Jun 22, 4:00 AM)30.25 "Hg (Jun 22, 4:00 AM)
Low43 °F (Jun 25, 5:00 AM)30% (Jul 2, 5:00 PM)29.67 "Hg (Jun 23, 1:00 AM)
Average63 °F69%30.08 "Hg
* Reported Jun 18 5:00 PM — Jul 3 5:00 PM, Melsungen, Weather by CustomWeather, © 2015

Note: Actual official high and low records may vary slightly from our data, if they occured in-between our weather recording intervals... More about our weather records

Advertising

Melsungen weather history for previous 24 hours

 ConditionsComfort  
Time TempWeatherWind HumidityBarometerVisibility
5:00 PM
Fri, Jul 3
93 °FPassing clouds.2 mph37%30.15 "Hg19 mi
4:00 PM91 °FPassing clouds.3 mph36%30.17 "Hg19 mi
3:00 PM89 °FPassing clouds.2 mph44%30.17 "Hg19 mi
2:00 PM84 °FPassing clouds.2 mph54%30.20 "Hg12 mi
1:00 PM82 °FPassing clouds.N/A57%30.22 "Hg12 mi
12:00 PM78 °FScattered clouds.2 mph64%30.24 "Hg9 mi
11:00 AM75 °FPartly sunny.3 mph70%30.25 "Hg9 mi
10:00 AM68 °FThunderstorms. Partly sunny.3 mph90%30.24 "Hg9 mi
9:00 AM67 °FThunderstorms. Overcast.2 mph87%30.24 "Hg7 mi
8:00 AM72 °FThundershowers. Overcast.3 mph70%30.23 "Hg8 mi
7:00 AM66 °FThunderstorms. Partly sunny.2 mph82%30.20 "Hg9 mi
6:00 AM63 °FScattered clouds.1 mph87%30.20 "Hg16 mi
5:00 AM65 °FPassing clouds.2 mph81%30.18 "Hg16 mi
4:00 AM68 °FPassing clouds.2 mph75%30.16 "Hg16 mi
3:00 AM64 °FPassing clouds.2 mph86%30.16 "Hg19 mi
2:00 AM67 °FPassing clouds.2 mph78%30.16 "Hg19 mi
1:00 AM70 °FPassing clouds.2 mph71%30.15 "Hg19 mi
12:00 AM70 °FClear.2 mph78%30.15 "Hg19 mi
10:00 PM
Thu, Jul 2
78 °FPassing clouds.1 mph60%30.14 "Hg19 mi
9:00 PM85 °FSunny.3 mph44%30.09 "Hg25 mi
8:00 PM89 °FSunny.5 mph34%30.08 "Hg25 mi
7:00 PM92 °FSunny.5 mph31%30.08 "Hg25 mi
6:00 PM93 °FSunny.5 mph31%30.08 "Hg25 mi
5:00 PM93 °FPassing clouds.6 mph30%30.08 "Hg25 mi
Weather by CustomWeather, © 2015

See weather overviewHow to use our weather pages